Kugluktuk Climate, Nunavut

7:59 PM MST on February 07, 2016 (GMT -0700)
Kugluktuk

Weather History for CYCO - March, 2013

Change the Weather History Date:

Monday, March 25, 2013

  Actual Average Record
Temperature  
Mean Temperature 0 °F -  
Max Temperature 18 °F -2 °F 18 °F (2013)
Min Temperature -17 °F -16 °F -34 °F (2004)
Degree Days  
Heating Degree Days 64    
Moisture  
Dew Point -10 °F    
Average Humidity 68    
Maximum Humidity 79    
Minimum Humidity 43    
Precipitation  
Precipitation 0.00 in - - ()
Sea Level Pressure  
Sea Level Pressure 30.34 in    
Wind  
Wind Speed 2 mph ()    
Max Wind Speed 16 mph    
Max Gust Speed -    
Visibility 15.0 miles    
Events Snow    
Averages and records for this station are not official NWS values.
T = Trace of Precipitation, MM = Missing Value Source: Averaged Metar Reports

Daily Weather History Graph

Daily Weather History Graph

Search for Another Location

Airport or City:

Trip Planner

Search our weather history database for the weather conditions in past years. The results will help you decide how hot, cold, wet, or windy it might be!

Date:

Astronomy

Mar. 25, 2013 Rise Set
Actual Time 7:17 AM MDT 8:17 PM MDT
Civil Twilight 6:21 AM MDT 9:13 PM MDT
Nautical Twilight 5:08 AM MDT 10:27 PM MDT
Astronomical Twilight 3:28 AM MDT 12:12 AM MDT
Moon 6:31 PM MDT (3/25) 6:39 AM MDT (3/25)
Length of Visible Light 14h 52m
Length of Day
12h 59m
Waxing Gibbous, 97% of the Moon is Illuminated
Mar 25
Waxing Gibbous
Mar 27
Full
Apr 2
Last Quarter
Apr 10
New
Apr 18
First Quarter

Hourly Weather History & Observations

Time (MDT) Temp. Windchill Dew Point Humidity Pressure Visibility Wind Dir Wind Speed Gust Speed Precip Events Conditions
12:00 AM -10 °F - -16 °F 61% 30.33 in 15 mi Calm Calm - -   Scattered Clouds
12:00 AM -9.4 °F - -16.6 °F 71% 30.33 in 15.0 mi Calm Calm - N/A   Partly Cloudy
1:00 AM -11.2 °F -23.0 °F -18.4 °F 70% 30.34 in 15.0 mi North 4.6 mph - N/A   Partly Cloudy
2:00 AM -11.2 °F - -18.4 °F 70% 30.34 in 15.0 mi Calm Calm - N/A   Partly Cloudy
3:00 AM -9.4 °F - -14.8 °F 77% 30.34 in 15.0 mi Calm Calm - N/A   Clear
4:00 AM -9.4 °F - -16.6 °F 71% 30.34 in 15.0 mi Calm Calm - N/A   Clear
6:00 AM -11 °F - -18 °F 57% 30.36 in 15 mi Calm Calm - -   Scattered Clouds
6:00 AM -11.2 °F - -18.4 °F 70% 30.36 in 15.0 mi Calm Calm - N/A   Partly Cloudy
7:00 AM -14.8 °F - -22.0 °F 70% 30.37 in 15.0 mi NW 2.3 mph - N/A   Partly Cloudy
8:00 AM -14.8 °F -24.8 °F -22.0 °F 70% 30.36 in 15.0 mi ESE 3.5 mph - N/A   Partly Cloudy
9:00 AM -14.8 °F -32.2 °F -22.0 °F 70% 30.36 in 15.0 mi SE 8.1 mph - N/A   Partly Cloudy
10:00 AM -14.8 °F - -22.0 °F 70% 30.36 in 15.0 mi Calm Calm - N/A   Partly Cloudy
11:00 AM -13.0 °F - -18.4 °F 77% 30.36 in 15.0 mi Calm Calm - N/A   Partly Cloudy
12:00 PM -5 °F - -16 °F 43% 30.36 in 15 mi Calm Calm - -   Scattered Clouds
12:00 PM -5.8 °F - -16.6 °F 60% 30.36 in 15.0 mi Calm Calm - N/A   Partly Cloudy
1:00 PM -7.6 °F - -14.8 °F 71% 30.36 in 15.0 mi Calm Calm - N/A   Partly Cloudy
2:00 PM -4.0 °F - -11.2 °F 71% 30.36 in 15.0 mi Calm Calm - N/A   Partly Cloudy
3:00 PM -2.2 °F -10.4 °F -9.4 °F 71% 30.35 in 15.0 mi NNW 3.5 mph - N/A   Partly Cloudy
4:00 PM -0.4 °F - -7.6 °F 72% 30.35 in 15.0 mi Calm Calm - N/A   Partly Cloudy
5:00 PM 17.6 °F 4.3 °F 10.4 °F 73% 30.33 in 15.0 mi South 12.7 mph - N/A Snow Low Drifting Snow
6:00 PM 16 °F - 8 °F 59% 30.32 in 15 mi Calm Calm - -   Scattered Clouds
6:00 PM 15.8 °F - 8.6 °F 73% 30.32 in 15.0 mi Calm Calm - N/A   Partly Cloudy
7:00 PM 17.6 °F 2.7 °F 5.0 °F 58% 30.31 in 15.0 mi South 16.1 mph - N/A   Partly Cloudy
8:00 PM 14.0 °F -2.0 °F 5.0 °F 67% 30.30 in 15.0 mi South 16.1 mph - N/A Snow Low Drifting Snow
9:00 PM 10.4 °F -5.4 °F 1.4 °F 67% 30.30 in 15.0 mi South 13.8 mph - N/A Snow Low Drifting Snow
10:00 PM 14.0 °F 3.9 °F 6.8 °F 73% 30.30 in 15.0 mi South 6.9 mph - N/A   Partly Cloudy
11:00 PM 14.0 °F 2.0 °F 8.6 °F 79% 30.29 in 15.0 mi South 9.2 mph - N/A   Partly Cloudy